Flag for U.S.A. Weather past 2 weeks in Cape Canaveral, Florida, U.S.A.

Now
82 °F

Sunny.


Feels Like: 87 °F
Forecast: 74 / 83 °F
Wind: 7 mph from West

Location: Cape Kennedy

Current Time: Sep 17, 2014 at 5:37:30 PM

Latest Report: Sep 17, 2014 at 4:58 PM


Visibility: 10 mi

Pressure: 29.86 "Hg

Humidity: 76%

Dew point: 73 °F

Location of Cape CanaveralLocation

Historic Weather in Cape Canaveral — Graph

°F

Cape Canaveral temperature yesterday

Maximum temperature yesterday: 89 °F (at 12:58 PM)
Minimum temperature yesterday: 76 °F (at 2:58 AM)
Average temperature yesterday: 81 °F

Past Weeks' High & Low Weather Summary

 TemperatureHumidityPressure
High89 °F (Sep 16, 12:58 PM)97% (Sep 6, 4:58 AM)30.18 "Hg (Sep 6, 4:58 AM)
Low70 °F (Sep 15, 6:58 AM)51% (Sep 15, 11:58 AM)29.87 "Hg (Sep 17, 3:58 PM)
Average80 °F79%30.04 "Hg
* Reported Sep 2 3:58 PM — Sep 17 3:58 PM, Cape Canaveral, Weather by CustomWeather, © 2014

Note: Actual official high and low records may vary slightly from our data, if they occured in-between our weather recording intervals... More about our weather records

Advertising

Cape Canaveral weather history for previous 24 hours

 ConditionsComfort  
Time TempWeatherWind HumidityBarometerVisibility
3:58 PM
Sep 17
82 °FSunny.7 mph77%29.87 "Hg10 mi
2:58 PM80 °FSunny.8 mph83%29.89 "Hg10 mi
1:58 PM84 °FPassing clouds.8 mph69%29.90 "Hg10 mi
12:58 PM85 °FPassing clouds.8 mph63%29.93 "Hg10 mi
11:58 AM85 °FSunny.12 mph66%29.95 "Hg10 mi
10:58 AM83 °FSunny.12 mph70%29.95 "Hg10 mi
9:58 AM81 °FSunny.12 mph75%29.95 "Hg10 mi
8:58 AM77 °FSunny.10 mph80%29.95 "Hg10 mi
7:58 AM76 °FClear.10 mph87%29.94 "Hg10 mi
6:58 AM76 °FClear.8 mph86%29.94 "Hg10 mi
5:58 AM76 °FClear.6 mph84%29.92 "Hg10 mi
4:58 AM77 °FClear.9 mph84%29.93 "Hg10 mi
3:58 AM77 °FClear.7 mph86%29.94 "Hg10 mi
2:58 AM76 °FClear.6 mph86%29.95 "Hg10 mi
1:58 AM77 °FClear.3 mph84%29.97 "Hg10 mi
12:58 AM78 °FClear.6 mph81%29.97 "Hg10 mi
11:58 PM
Sep 16
78 °FClear.6 mph82%29.98 "Hg10 mi
10:58 PM78 °FClear.6 mph83%30.01 "Hg10 mi
9:58 PM79 °FClear.7 mph75%30.00 "Hg10 mi
8:58 PM80 °FClear.6 mph76%30.00 "Hg10 mi
7:58 PM79 °FPassing clouds.No wind77%29.99 "Hg10 mi
6:58 PM80 °FSunny.2 mph77%29.98 "Hg10 mi
5:58 PM81 °FSunny.6 mph77%29.99 "Hg10 mi
5:46 PM81 °FThundershowers. Sunny.7 mph79%29.97 "Hg10 mi
Weather by CustomWeather, © 2014

See weather overviewHow to use our weather pages